Location: Hac?musa Deresi
(39.1694°N, 32.2508°E)
Time: 09:13:56
(UTC+00:00)

SL-16 R/B - Pass Details

Date: 22 April 2026
Orbit: 839 x 849 km, 71.0° (Epoch: 12 May)

Event Time Altitude Azimuth Distance (km) Brightness Sun altitude
Rises 17:24:22 0° 180° (S) 3,377 5.1 -9.7°
Reaches altitude 10° 17:26:55 10° 173° (S) 2,448 4.3 -10.2°
Maximum altitude 17:32:08 40° 105° (ESE) 1,215 2.6 -11.1°
Drops below altitude 10° 17:37:23 10° 38° (NE) 2,470 4.5 -12.0°
Sets 17:39:58 0° 31° (NNE) 3,410 5.3 -12.5°
